www.pogodaiklimat.ru

Погода и климат >> Архив погоды >> Таиланд >> Хуайпонг Агромет


ПОГОДА в Хуайпонг Агромете

  • Прогноз погоды в Хуайпонг Агромете
  • Монитор погоды в Хуайпонг Агромете

АРХИВ ПОГОДЫ в Хуайпонг Агромете

Время (UTC), дата Ветер
(напр.,м/с)
 
Видим.   Явления Облачность Т
(С)
Тd
(С)
f
(%)
Тe
(С)
Тes
(С)
Комфортность P
(гПа)
Po
(гПа)
Тmin
(С)
Tmax
(С)
R
(мм)
R24
(мм)
S
(см)
15 18.06 штиль 0 13 км 9/5 600 м
[Sc Ac und Cs]
+28.7 +23.9 75 +40 +40 очень
душно
1008.2 1003.1
18 18.06 штиль 0 12 км 10/6 600 м
[Sc Ac und Cs]
+28.4 +24.4 79 +40 +40 очень
душно
1007.8 1002.6
21 18.06 штиль 0 11 км 10/6 600 м
[Sc Ac und Cs]
+28.2 +24.3 79 +39 +39 очень
душно
1006.7 1001.6
00 19.06 ЮЗ 1 12 км 10/5 600 м
[Sc Ac und Cs]
+28.0 +24.6 82 +40 +40 очень
душно
1008.1 1002.9 +27.8
03 19.06 ЮЗ 3 13 км 10/6 600 м
[Sc Ac und Cs]
+30.3 +24.1 69 +42 +44 опасность
перегрева
1009.5 1004.4
06 19.06 Ю 2 14 км 9/6 600 м
[Sc Ac und Cs]
+32.2 +24.8 65 +45 +51 опасность
перегрева
1007.9 1002.9
09 19.06 ЮЗ 2 14 км 8/5 600 м
[Cu med, cong Ac lent Cs]
+32.0 +24.3 64 +44 +47 опасность
перегрева
1005.6 1000.5
12 19.06 штиль 0 13 км 8/4 600 м
[Cu med, cong Ac lent Ci fib]
+29.7 +25.8 80 +44 +44 опасность
перегрева
1006.1 1001.0 +33.5
15 19.06 СЗ 1 12 км 8/4 600 м
[Cu med, cong Ac lent Ci fib]
+28.4 +25.0 82 +41 +41 опасность
перегрева
1008.4 1003.2
18 19.06 штиль 0 11 км 10/4 600 м
[Sc Ac und Cs]
+27.5 +24.9 86 +39 +39 очень
душно
1007.8 1002.7
21 19.06 штиль 0 11 км 8/4 600 м
[Cu med, cong Ci fib]
+26.8 +24.8 89 +38 +38 очень
душно
1007.1 1002.0
00 20.06 С 1 15 км 8/3 600 м
[Cu med, cong Ac trans Ci fib]
+27.2 +25.1 88 +39 +40 очень
душно
1008.9 1003.7 +25.7
03 20.06 Ю 2 15 км дым 9/5 600 м
[Sc Ac lent Ci sp]
+32.8 +24.6 62 +46 +50 опасность
перегрева
1009.1 1004.0
06 20.06 СВ 1 14 км 6/6 600 м
[Cu med, cong Ci fib]
+33.3 +24.8 61 +46 +56 опасность
перегрева
1007.4 1002.4
09 20.06 З 1 14 км 8/8 600 м
[Cu med, cong Ci fib]
+32.3 +25.1 66 +46 +48 опасность
перегрева
1006.1 1001.0
12 20.06 З 1 14 км 8/3 600 м
[Cu med, cong Ac lent Cs]
+30.0 +25.0 75 +43 +43 опасность
перегрева
1006.6 1001.5 +34.6
15 20.06 штиль 0 12 км 8/4 600 м
[Cu med, cong Ci sp]
+28.7 +25.1 81 +42 +42 опасность
перегрева
1008.1 1003.0
18 20.06 штиль 0 11 км 8/4 600 м
[Cu med, cong Ci sp]
+28.0 +25.3 85 +41 +41 опасность
перегрева
1007.3 1002.2
21 20.06 З 1 11 км 8/4 600 м
[Cu med, cong Ci sp]
+27.4 +25.3 88 +40 +40 очень
душно
1006.6 1001.4
00 21.06 штиль 0 14 км 9/3 600 м
[Cu med, cong Ci sp]
+27.9 +24.9 84 +40 +41 очень
душно
1008.1 1002.9 +27.1
03 21.06 З 5 17 км 8/8 600 м
[Cu med, cong Ci sp]
+33.0 +23.7 58 +44 +46 опасность
перегрева
1009.0 1003.9
06 21.06 ЮЗ 2 16 км 8/8 600 м
[Cu med, cong Ac lent Ci fib]
+34.2 +24.4 57 +47 +51 опасность
перегрева
1006.2 1001.1
09 21.06 З 9 14 км 3/3 600 м
[Cu med, cong Ci fib]
+35.3 +21.7 45 +43 +44 опасность
перегрева
1004.8 999.8
12 21.06 ЮЗ 1 14 км 8/3 600 м
[Sc diur, vesp Ac lent Ci sp]
+30.9 +24.8 70 +44 +44 опасность
перегрева
1005.3 1000.3 +36.0
15 21.06 ЮЗ 1 12 км 8/3 600 м
[Sc diur, vesp Ci sp]
+29.6 +25.5 79 +44 +44 опасность
перегрева
1006.5 1001.4
18 21.06 ЮЗ 1 11 км 8/3 600 м
[Sc diur, vesp Ac lent Ci sp]
+29.3 +26.1 83 +44 +44 опасность
перегрева
1006.3 1001.2
21 21.06 З 1 11 км 8/3 600 м
[Sc diur, vesp Ac lent Ci sp]
+28.4 +25.7 85 +42 +42 опасность
перегрева
1005.2 1000.0
00 22.06 З 5 12 км 8/3 600 м
[Cu hum Ci fib]
+29.1 +25.6 81 +43 +43 опасность
перегрева
1005.2 1000.1 +27.8
03 22.06 СЗ 3 12 км 8/3 600 м
[Cu hum Ac trans Cs]
+32.3 +24.3 63 +45 +51 опасность
перегрева
1007.3 1002.2
06 22.06 СЗ 2 10 км гроза, ливневой дождь 10/3 300 м
[Cb cap Ac und Cs]
+30.8 +25.0 71 +44 +51 опасность
перегрева
1005.4 1000.3 0.0
09 22.06 Ю 1 10 км {гроза, дождь} 5/3 600 м
[Cu hum Ac trans Ci fib]
+33.4 +24.3 59 +46 +51 опасность
перегрева
1003.7 998.6 0.1
12 22.06 штиль 0 10 км {гроза, дождь} 3/1 600 м
[Cu hum Ci sp]
+30.2 +25.2 75 +44 +44 опасность
перегрева
1003.7 998.6 +34.5 0.1
15 22.06 штиль 0 9000 м дымка 4/3 600 м
[Cu hum Ci sp]
+28.7 +24.5 78 +41 +41 опасность
перегрева
1005.4 1000.2
18 22.06 штиль 0 8000 м дымка 4/1 600 м
[Cu hum Ci sp]
+28.5 +24.8 80 +41 +41 опасность
перегрева
1005.2 1000.1
21 22.06 штиль 0 8000 м дымка 4/3 600 м
[Cu hum Ci sp]
+28.4 +25.0 82 +41 +41 опасность
перегрева
1004.2 999.1
00 23.06 штиль 0 10 км 5/3 600 м
[Cu Sc Ac und Ci sp]
+29.3 +26.6 85 +45 +46 опасность
перегрева
1004.7 999.6 +28.4
03 23.06 З 1 12 км слаб. дождь 8/3 600 м
[Cu Sc Ac und Cs]
+30.5 +28.2 88 +51 +59 опасность
перегрева
1005.3 1000.2 3
06 23.06 СЗ 5 7000 м гроза, ливневой дождь 10/6 300 м
[Cb cap Ac und Cs]
+26.0 +24.4 91 +36 +39 очень
душно
1005.6 1000.4 33
09 23.06 З 1 11 км {гроза, дождь} 10/3 600 м
[Cu Sc Ac und Cs]
+30.0 +25.6 77 +44 +47 опасность
перегрева
1004.0 998.9 22
12 23.06 Ю 3 9000 м слаб. дождь {гроза} 10/5 600 м
[Cu Sc Ac As Cs]
+27.9 +25.8 88 +41 +41 опасность
перегрева
1004.8 999.7 +34.1 60
15 23.06 ЮВ 3 7000 м слаб. дождь 10/5 600 м
[Cu Sc Ac As Cs]
+27.2 +25.8 92 +40 +40 очень
душно
1007.3 1002.1 2
18 23.06 штиль 0 7000 м дымка {дождь} 10/3 600 м
[Cu Sc Ac und Cs]
+26.3 +25.0 93 +38 +38 очень
душно
1006.0 1000.8 0.0
21 23.06 штиль 0 7000 м дымка 10/3 600 м
[Cu Sc Ac und Cs]
+25.3 +24.3 94 +35 +35 очень
душно
1005.9 1000.7
00 24.06 С 2 10 км 10/3 600 м
[Cu Sc Ac und Cs]
+27.0 +24.8 88 +39 +39 очень
душно
1006.8 1001.6 +25.3
03 24.06 ЮЗ 2 11 км 9/3 600 м
[Cu Sc Ac und Cs]
+30.0 +24.6 73 +43 +49 опасность
перегрева
1008.0 1002.9
06 24.06 В 1 11 км в посл. час гроза {дождь} 10/4 600 м
[Cu Sc Ac und Cs]
+28.4 +25.7 85 +42 +49 опасность
перегрева
1007.2 1002.1 3
09 24.06 З 1 10 км 8/3 600 м
[Cu Sc Ac und Cs]
+30.7 +25.6 74 +45 +49 опасность
перегрева
1005.6 1000.5
12 24.06 штиль 0 10 км 10/3 600 м
[Cu Sc Ac und Cs]
+29.3 +25.0 78 +42 +42 опасность
перегрева
1006.5 1001.4 +31.3
15 24.06 Ю 2 9000 м дымка 10/3 600 м
[Cu Sc Ac und Cs]
+28.7 +25.1 81 +42 +42 опасность
перегрева
1008.3 1003.2
18 24.06 Ю 3 9000 м дымка 10/3 600 м
[Cu Sc Ac und Cs]
+28.6 +25.9 85 +43 +43 опасность
перегрева
1007.7 1002.6
21 24.06 Ю 2 9000 м дымка 10/3 600 м
[Cu Sc Ac und Cs]
+28.4 +25.9 86 +42 +42 опасность
перегрева
1006.6 1001.5
00 25.06 штиль 0 12 км 10/3 600 м
[Cu Sc Ac und Cs]
+28.2 +25.8 87 +42 +43 опасность
перегрева
1008.5 1003.4 +27.9
03 25.06 Ю 3 12 км 8/4 600 м
[Cu Sc Ac und Cs]
+31.3 +25.8 73 +47 +52 опасность
перегрева
1009.6 1004.5
06 25.06 ЮЗ 4 12 км 6/3 600 м
[Cu Sc Ac trans Cs]
+32.5 +24.4 62 +45 +53 опасность
перегрева
1008.2 1003.1
09 25.06 Ю 3 12 км 6/3 600 м
[Cu Sc Cs]
+31.2 +24.8 69 +44 +48 опасность
перегрева
1006.6 1001.5
12 25.06 З 2 11 км 10/3 600 м
[Cu Sc Ac und Cs]
+29.6 +24.9 76 +42 +42 опасность
перегрева
1007.8 1002.7 +33.6

 

Местоположение метеостанции Хуайпонг Агромет (Таиланд): широта 12.73 долгота 101.13 высота над уровнем моря 45 м.

В архиве по умолчанию представлена погода в Хуайпонг Агромете за последнюю неделю. Архивные данные за месяц целиком и за предыдущие месяцы, начиная с января 2011 года, Вы можете получить, выбрав интересующий диапазон дат из раскрывающегося списка и нажав кнопку "Ввод!".


*Определитесь, кто Вы:
робот инопланетянин человек

Внимание! Время в таблицах - всемирное. Для получения местного времени необходимо прибавить поправку, которая равна 7 ч.

Смотрите также архив погоды в соседних городах и на ближайших метеорологических станциях:

Погода в Саттахипе (Таиланд) (17 км)
Погода в Районге (Таиланд) (26 км)
Погода в Паттайе (Таиланд) (36 км)
Погода на Ко Сичан (Таиланд) (61 км)
Погода в Чонбури (Таиланд) (73 км)
Погода в Ратбури (Таиланд) (73 км)
Погода в Бангкок Пилот (Таиланд) (92 км)
Погода в Чаченгсау (Таиланд) (92 км)
Погода в Самутрудкан Агромете (Таиланд) (97 км)
Погода в Чантабури (Таиланд) (107 км)

Пояснения к столбцам:

Ветер - указаны скорость ветра в м/с - средняя за 10 мин, порывы в срок и между сроками (в фигурных скобках) и направление, откуда дует ветер: С - северный, СВ - северо-восточный, В - восточный, ЮВ - юго-восточный, Ю - южный, ЮЗ - юго-западный, З - западный, СЗ - северо-западный.
Видимость - горизонтальная дальность видимости в метрах или километрах. При видимости от 1 до 10 км при отсутствии осадков обычно наблюдается дымка, при ухудшении видимости до 1 км и менее - туман. В сухую погоду видимость может ухудшаться дымом, пылью или мглою.
Явления - указаны атмосферные явления, наблюдавшиеся в срок или в последний час перед сроком; фигурными скобками обозначены явления, наблюдавшиеся между сроками (за 1-3 часа до срока); квадратными скобками обозначены град или гололедные отложения с указанием их диаметра в мм.
Облачность - указаны через наклонную черту общая и нижняя облачность в баллах и высота нижней границы облаков в метрах; квадратными скобками обозначены формы облаков: Ci - перистые, Cs - перисто-слоистые, Cc - перисто-кучевые, Ac - высококучевые, As - высокослоистые, Sc - слоисто-кучевые, Ns - слоисто-дождевые, Cu - кучевые, Cb - кучево-дождевые. Подробнее классификацию облаков см. в Атласе облаков (PDF).
T - Температура воздуха - температура, измеренная на высоте 2 м над землей.
Td - Температура точки росы - температура, при понижении до которой содержащийся в воздухе водяной пар достигнет насыщения.
f - Относительная влажность воздуха - влажноcть воздуха, измеренная на высоте 2 м над землей.
Te - Эффективная температура - температура, которую ощущает одетый по сезону человек в тени. Характеристика душности погоды. При расчете учитывается влияние влажности воздуха и скорости ветра на теплоощущения человека.
Tes - Эффективная температура на солнце - температура, которую ощущает человек, с поправкой на солнечный нагрев. Характеристика знойности погоды. Зависит от высоты солнца над горизонтом, облачности и скорости ветра. Ночью, в пасмурную погоду, а также при ветре 12 м/с и более поправка равна нулю.
P - Атмосферное давление - приведенное к уровню моря атмосферное давление.
Po - Атмосферное давление - измеренное на уровне метеостанции атмосферное давление.
Tmin - Минимальная температура - минимум температуры воздуха на высоте 2 м над землей.
Tmax - Максимальная температура - максимум температуры воздуха на высоте 2 м над землей.
R - Количество осадков - Количество выпавших осадков за период времени, мм. При наведении курсора мыши на число - период времени, за который выпало указанное количество осадков.
R24 - Количество осадков - Количество выпавших осадков за 24 часа, мм.
S - Снежный покров - Высота снежного покрова, см. При наведении курсора мыши на число - состояние снежного покрова и степень покрытия местности в баллах.